K7SPS-10 Weather Reports


Display with metric or nautical units.
time (UTC)temp
F
wind
direction
speed
MPH
gust
MPH
rain 1hr
in
rain 24hr
in
rain mn
in
humidity
%
barometer
mb
20260505200042 77 355 2.0 6.0 0.00 0.00 0.00 34 1010.2
20260505195538 76 320 3.0 5.0 0.00 0.00 0.00 31 1010.3
20260505195036 77 28 5.0 6.0 0.00 0.00 0.00 32 1010.3
20260505194533 76 327 1.0 3.0 0.00 0.00 0.00 30 1010.3
20260505194028 75 75 5.0 9.0 0.00 0.00 0.00 31 1010.2
20260505193525 75 235 3.0 3.0 0.00 0.00 0.00 32 1010.4
20260505193023 75 127 7.0 10.0 0.00 0.00 0.00 32 1010.4
20260505192521 76 91 2.0 3.0 0.00 0.00 0.00 33 1010.5
20260505192018 75 173 3.0 4.0 0.00 0.00 0.00 34 1010.6
20260505191516 76 115 2.0 3.0 0.00 0.00 0.00 34 1010.4
20260505191014 76 122 3.0 4.0 0.00 0.00 0.00 35 1010.5
20260505190508 76 129 0.0 4.0 0.00 0.00 0.00 33 1010.5
20260505190005 75 150 3.0 3.0 0.00 0.00 0.00 34 1010.6
20260505185502 74 117 0.0 7.0 0.00 0.00 0.00 39 1010.6
20260505184958 75 192 5.0 6.0 0.00 0.00 0.00 35 1010.6
20260505184455 75 112 2.0 4.0 0.00 0.00 0.00 38 1010.6
20260505183951 74 118 3.0 3.0 0.00 0.00 0.00 38 1010.7
20260505183449 74 112 6.0 6.0 0.00 0.00 0.00 39 1010.6
20260505182945 73 209 3.0 7.0 0.00 0.00 0.00 36 1010.8
20260505182442 75 184 3.0 4.0 0.00 0.00 0.00 36 1010.8
20260505181938 74 278 0.0 5.0 0.00 0.00 0.00 39 1010.8
20260505181436 74 79 2.0 4.0 0.00 0.00 0.00 36 1010.7
20260505180933 73 154 3.0 5.0 0.00 0.00 0.00 38 1010.8
20260505180429 73 119 3.0 5.0 0.00 0.00 0.00 39 1011.0
20260505175926 72 112 5.0 6.0 0.00 0.00 0.00 40 1011.0
20260505175422 73 107 2.0 4.0 0.00 0.00 0.00 40 1010.8
20260505174918 72 111 6.0 7.0 0.00 0.00 0.00 42 1010.8
20260505174416 73 118 4.0 5.0 0.00 0.00 0.00 40 1010.9
20260505173912 72 120 3.0 7.0 0.00 0.00 0.00 41 1011.0
20260505173408 72 133 2.0 5.0 0.00 0.00 0.00 42 1010.6
20260505172905 72 112 7.0 7.0 0.00 0.00 0.00 42 1010.9
20260505172403 71 93 3.0 9.0 0.00 0.00 0.00 40 1010.8
20260505171903 72 98 3.0 5.0 0.00 0.00 0.00 44 1010.7
20260505171400 71 81 3.0 6.0 0.00 0.00 0.00 42 1010.7
20260505170856 70 107 3.0 5.0 0.00 0.00 0.00 45 1011.2
20260505170353 70 93 3.0 7.0 0.00 0.00 0.00 45 1010.8
20260505165848 70 96 4.0 7.0 0.00 0.00 0.00 44 1010.8
20260505165344 68 62 8.0 11.0 0.00 0.00 0.00 48 1010.5
20260505164840 68 105 3.0 6.0 0.00 0.00 0.00 48 1010.8
20260505164337 68 60 8.0 9.0 0.00 0.00 0.00 50 1010.9
20260505163835 68 100 7.0 10.0 0.00 0.00 0.00 49 1010.7
20260505163334 67 98 7.0 8.0 0.00 0.00 0.00 48 1010.7
20260505162832 68 106 6.0 7.0 0.00 0.00 0.00 47 1010.7
20260505162328 67 97 5.0 10.0 0.00 0.00 0.00 48 1010.6
20260505161825 67 111 3.0 6.0 0.00 0.00 0.00 47 1010.8
20260505161322 67 88 5.0 6.0 0.00 0.00 0.00 49 1010.8
20260505160819 68 103 5.0 5.0 0.00 0.00 0.00 46 1010.9
20260505160317 67 93 3.0 6.0 0.00 0.00 0.00 48 1010.7
20260505153256 66 114 3.0 5.0 0.00 0.00 0.00 50 1010.6
20260505152754 65 117 4.0 5.0 0.00 0.00 0.00 51 1010.4
20260505152250 64 104 4.0 5.0 0.00 0.00 0.00 49 1010.5
20260505151750 64 98 4.0 7.0 0.00 0.00 0.00 49 1010.4
20260505151248 64 84 3.0 6.0 0.00 0.00 0.00 51 1010.5
20260505150745 64 102 3.0 4.0 0.00 0.00 0.00 52 1010.4
20260505150242 64 100 4.0 6.0 0.00 0.00 0.00 52 1010.3
20260505140212 62 119 1.0 2.0 0.00 0.00 0.00 54 1009.9
20260505130135 56 73 0.0 2.0 0.00 0.00 0.00 61 1008.7
20260505124625 57 233 3.0 3.0 0.00 0.00 0.00 60 1008.5
20260505124122 56 256 0.0 0.0 0.00 0.00 0.00 60 1008.4
20260505123617 57 240 0.0 1.0 0.00 0.00 0.00 58 1008.3
20260505123114 58 309 0.0 2.0 0.00 0.00 0.00 57 1008.1
20260505122611 58 37 0.0 2.0 0.00 0.00 0.00 57 1007.9
20260505122109 58 331 3.0 3.0 0.00 0.00 0.00 55 1007.8
20260505121604 59 304 2.0 3.0 0.00 0.00 0.00 54 1007.7
20260505121102 59 285 4.0 5.0 0.00 0.00 0.00 55 1007.7
20260505120558 59 294 4.0 4.0 0.00 0.00 0.00 56 1007.7
20260505120054 55 283 3.0 3.0 0.00 0.00 0.00 61 1007.8
20260505115548 57 216 2.0 3.0 0.00 0.00 0.00 59 1007.7
20260505115046 56 201 3.0 4.0 0.00 0.00 0.00 61 1007.7
20260505114543 57 203 4.0 5.0 0.00 0.00 0.00 58 1007.7
20260505114039 57 154 1.0 2.0 0.00 0.00 0.00 58 1007.6
20260505113536 58 124 0.0 2.0 0.00 0.00 0.00 56 1007.6
20260505113032 59 114 0.0 2.0 0.00 0.00 0.00 54 1007.4
20260505112528 60 340 1.0 3.0 0.00 0.00 0.00 53 1007.4
20260505112027 59 323 3.0 3.0 0.00 0.00 0.00 53 1007.4
20260505111520 59 31 2.0 4.0 0.00 0.00 0.00 56 1007.4
20260505111017 60 355 2.0 2.0 0.00 0.00 0.00 53 1007.3
20260505110513 60 13 1.0 3.0 0.00 0.00 0.00 53 1007.3
20260505101945 63 315 4.0 7.0 0.00 0.00 0.00 47 1006.7
20260505101444 64 325 7.0 9.0 0.00 0.00 0.00 46 1007.0
20260505100940 64 293 6.0 8.0 0.00 0.00 0.00 45 1006.7
20260505100437 64 302 6.0 8.0 0.00 0.00 0.00 44 1006.8
20260505095933 64 276 7.0 8.0 0.00 0.00 0.00 45 1006.8
20260505095430 63 296 4.0 5.0 0.00 0.00 0.00 45 1006.9
20260505094926 63 275 3.0 5.0 0.00 0.00 0.00 46 1006.6
20260505094423 62 223 4.0 5.0 0.00 0.00 0.00 47 1006.8
20260505093919 62 271 4.0 4.0 0.00 0.00 0.00 47 1006.6
20260505093416 64 286 4.0 6.0 0.00 0.00 0.00 45 1006.5
20260505092914 64 298 5.0 7.0 0.00 0.00 0.00 44 1006.6
20260505092412 65 283 4.0 6.0 0.00 0.00 0.00 42 1006.3
20260505091909 65 305 7.0 8.0 0.00 0.00 0.00 41 1006.7
20260505091406 65 256 7.0 10.0 0.00 0.00 0.00 41 1006.3
20260505090904 64 278 6.0 6.0 0.00 0.00 0.00 43 1006.3
20260505090402 64 285 5.0 9.0 0.00 0.00 0.00 42 1006.3
20260505085859 65 275 7.0 7.0 0.00 0.00 0.00 42 1006.3
20260505085357 65 285 6.0 8.0 0.00 0.00 0.00 39 1006.2
20260505084855 65 288 6.0 9.0 0.00 0.00 0.00 40 1006.7
20260505084353 64 287 5.0 5.0 0.00 0.00 0.00 41 1006.6
20260505083850 65 296 3.0 5.0 0.00 0.00 0.00 40 1006.7
20260505083348 64 349 4.0 5.0 0.00 0.00 0.00 41 1006.3
20260505082844 63 339 4.0 7.0 0.00 0.00 0.00 43 1006.5
20260505082340 63 307 5.0 8.0 0.00 0.00 0.00 43 1006.5
20260505081837 64 300 6.0 10.0 0.00 0.00 0.00 41 1006.3
20260505081333 65 276 7.0 8.0 0.00 0.00 0.00 40 1006.3
20260505080830 65 274 7.0 10.0 0.00 0.00 0.00 40 1006.5
20260505080326 65 219 8.0 13.0 0.00 0.00 0.00 39 1006.5
20260505075821 64 267 6.0 8.0 0.00 0.00 0.00 41 1006.6
20260505075319 66 256 3.0 9.0 0.00 0.00 0.00 37 1006.6
20260505074816 63 233 7.0 7.0 0.00 0.00 0.00 41 1006.2
20260505074313 62 236 5.0 6.0 0.00 0.00 0.00 43 1006.3
20260505073810 62 215 6.0 7.0 0.00 0.00 0.00 43 1006.7
20260505073308 62 227 3.0 4.0 0.00 0.00 0.00 42 1006.3
20260505072805 62 226 4.0 5.0 0.00 0.00 0.00 44 1006.6
20260505072301 61 274 4.0 5.0 0.00 0.00 0.00 44 1006.5
20260505071757 62 220 4.0 6.0 0.00 0.00 0.00 44 1006.5
20260505071254 62 232 5.0 6.0 0.00 0.00 0.00 44 1006.6
20260505070751 62 233 7.0 8.0 0.00 0.00 0.00 45 1006.3
20260505070248 62 217 7.0 7.0 0.00 0.00 0.00 45 1006.6
20260505065743 61 249 5.0 8.0 0.00 0.00 0.00 46 1006.2
20260505065240 60 232 5.0 6.0 0.00 0.00 0.00 48 1006.3
20260505064737 61 214 4.0 5.0 0.00 0.00 0.00 46 1006.3
20260505064235 62 237 3.0 5.0 0.00 0.00 0.00 45 1006.1
20260505063732 63 224 5.0 7.0 0.00 0.00 0.00 44 1006.1
20260505063228 62 215 5.0 6.0 0.00 0.00 0.00 46 1006.5
20260505062725 62 216 5.0 7.0 0.00 0.00 0.00 47 1006.2
20260505062223 62 218 6.0 7.0 0.00 0.00 0.00 47 1006.1
20260505061719 63 229 5.0 5.0 0.00 0.00 0.00 45 1006.1
20260505061217 65 272 3.0 6.0 0.00 0.00 0.00 42 1006.0
20260505060714 65 290 3.0 6.0 0.00 0.00 0.00 41 1006.0
20260505060211 65 290 5.0 7.0 0.00 0.00 0.00 42 1006.0
20260505055707 64 303 4.0 5.0 0.00 0.00 0.00 43 1006.0
20260505055203 64 301 2.0 5.0 0.00 0.00 0.00 44 1006.0
20260505054701 64 316 4.0 6.0 0.00 0.00 0.00 44 1005.9
20260505054159 65 292 4.0 7.0 0.00 0.00 0.00 44 1005.9
20260505053656 66 286 5.0 9.0 0.00 0.00 0.00 44 1006.1
20260505053152 65 300 7.0 8.0 0.00 0.00 0.00 44 1005.9
20260505052649 65 284 3.0 5.0 0.00 0.00 0.00 45 1005.8
20260505052147 65 323 3.0 5.0 0.00 0.00 0.00 45 1005.9
20260505051643 64 295 6.0 6.0 0.00 0.00 0.00 46 1005.9
20260505051142 63 303 3.0 3.0 0.00 0.00 0.00 51 1005.8
20260505050639 63 69 0.0 2.0 0.00 0.00 0.00 51 1005.7
20260505050137 65 335 2.0 5.0 0.00 0.00 0.00 46 1005.8
20260505041607 67 300 3.0 4.0 0.00 0.00 0.00 44 1005.2
20260505041104 68 298 3.0 4.0 0.00 0.00 0.00 43 1005.2
20260505040601 68 273 5.0 5.0 0.00 0.00 0.00 43 1005.0
20260505040059 69 291 4.0 5.0 0.00 0.00 0.00 41 1005.2
20260505035555 69 333 4.0 6.0 0.00 0.00 0.00 40 1004.8
20260505035051 69 316 3.0 7.0 0.00 0.00 0.00 40 1004.7
20260505034548 69 319 5.0 9.0 0.00 0.00 0.00 40 1004.8
20260505034045 70 321 6.0 8.0 0.00 0.00 0.00 39 1005.0
20260505033542 70 347 4.0 6.0 0.00 0.00 0.00 39 1004.8
20260505033040 70 330 5.0 9.0 0.00 0.00 0.00 39 1004.7
20260505032538 70 323 8.0 11.0 0.00 0.00 0.00 39 1005.0
20260505032034 70 316 7.0 9.0 0.00 0.00 0.00 39 1004.7
20260505031531 71 320 9.0 11.0 0.00 0.00 0.00 37 1004.4
20260505031027 71 322 6.0 10.0 0.00 0.00 0.00 37 1004.5
20260505030524 72 310 5.0 9.0 0.00 0.00 0.00 37 1004.4
20260505030021 73 293 3.0 8.0 0.00 0.00 0.00 36 1004.3
20260505025516 74 303 6.0 10.0 0.00 0.00 0.00 34 1004.1
20260505025016 75 302 5.0 12.0 0.00 0.00 0.00 33 1004.4
20260505024512 75 299 8.0 11.0 0.00 0.00 0.00 33 1004.2
20260505024009 75 333 4.0 12.0 0.00 0.00 0.00 33 1004.3
20260505023506 76 322 11.0 17.0 0.00 0.00 0.00 32 1004.2
20260505023003 75 328 5.0 6.0 0.00 0.00 0.00 35 1004.3
20260505022501 76 325 4.0 9.0 0.00 0.00 0.00 33 1004.0
20260505021958 77 352 3.0 4.0 0.00 0.00 0.00 31 1004.1
20260505021454 78 45 1.0 5.0 0.00 0.00 0.00 30 1003.9
20260505020950 78 357 3.0 3.0 0.00 0.00 0.00 30 1003.9
20260505020445 79 5 3.0 3.0 0.00 0.00 0.00 29 1004.1
20260505015943 80 7 4.0 4.0 0.00 0.00 0.00 28 1003.9
20260505015440 81 344 3.0 3.0 0.00 0.00 0.00 27 1003.9
20260505014937 81 4 2.0 5.0 0.00 0.00 0.00 27 1004.0
20260505014434 81 356 3.0 4.0 0.00 0.00 0.00 27 1003.8
20260505013931 81 9 2.0 3.0 0.00 0.00 0.00 27 1003.9
20260505013428 81 8 2.0 3.0 0.00 0.00 0.00 26 1003.8
20260505012926 82 350 3.0 4.0 0.00 0.00 0.00 26 1003.9
20260505012424 82 358 3.0 4.0 0.00 0.00 0.00 25 1004.0
20260505011919 82 358 2.0 5.0 0.00 0.00 0.00 25 1004.1
20260505011416 83 335 4.0 5.0 0.00 0.00 0.00 25 1004.2
20260505010913 83 337 3.0 6.0 0.00 0.00 0.00 24 1004.2
20260505010409 83 0 3.0 6.0 0.00 0.00 0.00 24 1004.0
20260505005904 83 15 2.0 5.0 0.00 0.00 0.00 23 1004.3
20260505005402 84 341 5.0 5.0 0.00 0.00 0.00 23 1003.9
20260505004859 83 348 2.0 7.0 0.00 0.00 0.00 25 1004.3
20260505004355 83 344 5.0 7.0 0.00 0.00 0.00 23 1004.1
20260505003853 83 327 6.0 8.0 0.00 0.00 0.00 24 1004.3
20260505003350 83 323 8.0 9.0 0.00 0.00 0.00 23 1004.5
20260505002845 83 343 4.0 16.0 0.00 0.00 0.00 23 1004.3
20260505002343 83 359 3.0 5.0 0.00 0.00 0.00 23 1004.5
20260505001841 84 351 7.0 12.0 0.00 0.00 0.00 23 1004.6
20260505001338 84 354 2.0 14.0 0.00 0.00 0.00 21 1004.7
20260505000835 84 346 4.0 6.0 0.00 0.00 0.00 22 1004.3
20260505000333 84 347 4.0 7.0 0.00 0.00 0.00 22 1004.2
20260504235829 84 0 3.0 15.0 0.00 0.00 0.00 22 1004.4
20260504235326 85 330 6.0 13.0 0.00 0.00 0.00 23 1004.6
20260504234823 84 25 4.0 7.0 0.00 0.00 0.00 24 1004.6
20260504234321 84 348 4.0 6.0 0.00 0.00 0.00 22 1004.6
20260504233817 84 339 8.0 9.0 0.00 0.00 0.00 22 1004.6
20260504233313 84 39 2.0 6.0 0.00 0.00 0.00 22 1004.4
20260504232809 84 308 7.0 12.0 0.00 0.00 0.00 24 1004.5
20260504232307 84 287 8.0 12.0 0.00 0.00 0.00 25 1004.6
20260504231804 84 337 3.0 9.0 0.00 0.00 0.00 23 1004.7
20260504231300 84 331 5.0 7.0 0.00 0.00 0.00 23 1004.7
20260504230756 84 4 5.0 5.0 0.00 0.00 0.00 23 1005.0
20260504230254 84 326 4.0 6.0 0.00 0.00 0.00 23 1005.2
20260504225753 84 321 7.0 14.0 0.00 0.00 0.00 24 1005.1
20260504225249 84 327 9.0 10.0 0.00 0.00 0.00 23 1005.3
20260504224746 83 310 7.0 12.0 0.00 0.00 0.00 23 1005.2
20260504224243 83 341 3.0 20.0 0.00 0.00 0.00 23 1005.2
20260504223739 83 306 9.0 16.0 0.00 0.00 0.00 22 1005.4
20260504223235 83 308 9.0 16.0 0.00 0.00 0.00 22 1005.4
20260504222732 83 294 7.0 14.0 0.00 0.00 0.00 22 1005.5
20260504222229 83 289 5.0 11.0 0.00 0.00 0.00 20 1005.4
20260504221727 83 286 10.0 15.0 0.00 0.00 0.00 22 1005.5
20260504221224 82 289 10.0 14.0 0.00 0.00 0.00 22 1005.8
20260504220720 83 289 11.0 13.0 0.00 0.00 0.00 23 1005.5
20260504220218 82 342 4.0 10.0 0.00 0.00 0.00 23 1005.6
20260504215714 83 332 3.0 21.0 0.00 0.00 0.00 21 1005.7
20260504215211 82 304 7.0 8.0 0.00 0.00 0.00 21 1005.8
20260504214707 82 43 5.0 6.0 0.00 0.00 0.00 22 1005.9
20260504214204 83 19 2.0 5.0 0.00 0.00 0.00 19 1006.0
20260504213700 82 329 6.0 13.0 0.00 0.00 0.00 20 1006.1
20260504213157 82 323 3.0 6.0 0.00 0.00 0.00 22 1006.1
20260504212653 82 358 4.0 12.0 0.00 0.00 0.00 24 1006.0
20260504212150 82 330 6.0 10.0 0.00 0.00 0.00 22 1006.0
20260504211648 82 313 11.0 13.0 0.00 0.00 0.00 23 1006.2
20260504211144 82 325 5.0 9.0 0.00 0.00 0.00 22 1006.3
20260504210642 82 350 2.0 4.0 0.00 0.00 0.00 20 1006.2
20260504210138 82 332 2.0 5.0 0.00 0.00 0.00 22 1006.6
20260504205636 82 9 2.0 5.0 0.00 0.00 0.00 20 1006.5
20260504205133 81 347 2.0 6.0 0.00 0.00 0.00 19 1006.7
20260504204631 82 359 3.0 8.0 0.00 0.00 0.00 19 1006.8
20260504204130 82 304 6.0 8.0 0.00 0.00 0.00 19 1006.5
20260504203628 82 0 2.0 13.0 0.00 0.00 0.00 18 1006.7
20260504203126 81 297 7.0 18.0 0.00 0.00 0.00 21 1006.9
20260504202626 81 312 5.0 9.0 0.00 0.00 0.00 22 1006.9
20260504202123 80 295 2.0 10.0 0.00 0.00 0.00 22 1006.8
20260504201619 80 320 7.0 8.0 0.00 0.00 0.00 22 1006.9
20260504201118 81 331 4.0 10.0 0.00 0.00 0.00 21 1007.0
20260504200615 81 340 4.0 4.0 0.00 0.00 0.00 21 1007.0